Somerville, NJ

9:39 PM EDT on May 22, 2018 (GMT -0400)
Somerset

Weather History for KSMQ - June, 2014

Change the Weather History Date:

Monday, June 9, 2014

  Actual Average Record
Temperature  
Mean Temperature 66 °F -  
Max Temperature 72 °F 80 °F 98 °F (1933)
Min Temperature 61 °F 55 °F 38 °F (1980)
Cooling Degree Days 1    
Growing Degree Days 16 (Base 50)    
Moisture  
Dew Point 62 °F    
Average Humidity 88    
Maximum Humidity 97    
Minimum Humidity 59    
Precipitation  
Precipitation 0.82 in - - ()
Sea Level Pressure  
Sea Level Pressure 29.92 in    
Wind  
Wind Speed 3 mph (NE)    
Max Wind Speed 7 mph    
Max Gust Speed -    
Visibility 5 miles    
Events Rain    
Averages and records for this station are not official NWS values.
T = Trace of Precipitation, MM = Missing Value Source: NWS Daily Summary

Daily Weather History Graph

Daily Weather History Graph

Search for Another Location

Airport or City:

Astronomy

Jun. 09, 2014 Rise Set
Actual Time 5:27 AM EDT 8:28 PM EDT
Civil Twilight 4:54 AM EDT 9:01 PM EDT
Nautical Twilight 4:12 AM EDT 9:43 PM EDT
Astronomical Twilight 3:23 AM EDT 10:33 PM EDT
Moon 4:46 PM EDT (6/9) 2:54 AM EDT (6/9)
Length of Visible Light 16h 07m
Length of Day
15h 00m
Waxing Gibbous, 85% of the Moon is Illuminated
Jun 9
Waxing Gibbous
Jun 13
Full
Jun 19
Last Quarter
Jun 27
New
Jul 5
First Quarter

Hourly Weather History & Observations

Time (EDT) Temp. Dew Point Humidity Pressure Visibility Wind Dir Wind Speed Gust Speed Precip Events Conditions
12:53 AM 70.0 °F 55.0 °F 59% 29.88 in 10.0 mi SSE 3.5 mph - N/A   Overcast
1:53 AM 68.0 °F 55.9 °F 65% 29.89 in 10.0 mi Calm Calm - 0.00 in Rain Light Rain
2:24 AM 64.0 °F 57.9 °F 80% 29.90 in 2.0 mi Calm Calm - 0.08 in Rain Rain
2:33 AM 64.0 °F 59.0 °F 84% 29.90 in 4.0 mi NW 3.5 mph - 0.10 in Rain Rain
2:53 AM 63.0 °F 60.1 °F 90% 29.88 in 10.0 mi East 3.5 mph - 0.11 in   Overcast
3:35 AM 62.1 °F 60.1 °F 93% 29.91 in 1.8 mi NNW 4.6 mph - 0.09 in Rain Heavy Rain
3:43 AM 62.1 °F 59.0 °F 90% 29.91 in 2.5 mi North 3.5 mph - 0.11 in Rain Rain
3:50 AM 62.6 °F 60.8 °F 94% 29.90 in 3.0 mi ENE 3.5 mph - 0.14 in Rain Rain
3:53 AM 62.1 °F 60.1 °F 93% 29.90 in 3.0 mi ENE 4.6 mph - 0.16 in Rain Rain
4:24 AM 62.1 °F 60.1 °F 93% 29.91 in 1.8 mi Variable 3.5 mph - 0.18 in Rain Heavy Rain
4:35 AM 62.1 °F 60.1 °F 93% 29.91 in 0.8 mi North 6.9 mph - 0.39 in Rain Heavy Rain
4:44 AM 61.0 °F 59.0 °F 93% 29.90 in 1.8 mi NE 6.9 mph - 0.44 in Rain Light Rain
4:46 AM 61.0 °F 60.1 °F 97% 29.90 in 3.0 mi NNE 6.9 mph - 0.44 in Rain Light Rain
4:53 AM 62.1 °F 60.1 °F 93% 29.90 in 8.0 mi NNE 5.8 mph - 0.44 in Rain Light Rain
5:53 AM 63.0 °F 60.1 °F 90% 29.90 in 10.0 mi East 3.5 mph - 0.05 in   Overcast
6:36 AM 64.0 °F 61.0 °F 90% 29.91 in 10.0 mi Calm Calm - N/A   Overcast
6:53 AM 64.0 °F 61.0 °F 90% 29.91 in 10.0 mi Calm Calm - N/A   Overcast
7:53 AM 64.0 °F 61.0 °F 90% 29.91 in 3.0 mi Calm Calm - 0.02 in Rain Light Rain
8:00 AM 63.0 °F 61.0 °F 93% 29.91 in 2.0 mi Calm Calm - 0.00 in Rain Light Rain
8:10 AM 63.0 °F 61.0 °F 93% 29.92 in 1.8 mi Calm Calm - 0.01 in Rain Light Rain
8:15 AM 64.0 °F 61.0 °F 90% 29.92 in 3.0 mi Calm Calm - 0.01 in Rain Light Rain
8:28 AM 64.0 °F 61.0 °F 90% 29.92 in 3.0 mi Calm Calm - 0.02 in Rain Light Rain
8:46 AM 64.0 °F 61.0 °F 90% 29.92 in 2.5 mi Calm Calm - 0.02 in Rain Light Rain
8:53 AM 64.0 °F 61.0 °F 90% 29.92 in 4.0 mi Calm Calm - 0.03 in Rain Light Rain
9:07 AM 64.0 °F 62.1 °F 93% 29.92 in 2.5 mi Calm Calm - 0.00 in Rain Light Rain
9:17 AM 64.0 °F 62.1 °F 93% 29.93 in 4.0 mi Calm Calm - 0.00 in Rain Light Rain
9:40 AM 64.9 °F 62.1 °F 90% 29.92 in 8.0 mi Calm Calm - 0.00 in   Overcast
9:53 AM 64.9 °F 62.1 °F 90% 29.92 in 5.0 mi Calm Calm - 0.00 in   Overcast
10:34 AM 66.0 °F 63.0 °F 90% 29.92 in 10.0 mi Calm Calm - N/A   Overcast
10:53 AM 66.2 °F 64.4 °F 94% 29.93 in 10.0 mi Calm Calm - N/A   Overcast
11:00 AM 66.9 °F 64.0 °F 90% 29.93 in 10.0 mi Calm Calm - N/A   Overcast
11:31 AM 68.0 °F 64.0 °F 87% 29.92 in 10.0 mi East 3.5 mph - N/A   Overcast
11:41 AM 68.0 °F 63.0 °F 84% 29.92 in 10.0 mi East 3.5 mph - N/A   Overcast
11:53 AM 68.0 °F 64.0 °F 87% 29.92 in 10.0 mi East 3.5 mph - N/A   Overcast
12:53 PM 68.0 °F 64.0 °F 87% 29.93 in 10.0 mi Calm Calm - N/A   Overcast
1:53 PM 71.1 °F 64.0 °F 78% 29.92 in 9.0 mi NE 4.6 mph - N/A   Overcast
3:53 PM 69.8 °F 64.4 °F 83% 29.92 in 5.0 mi Variable 4.6 mph - N/A   Haze
4:53 PM 71.1 °F 64.9 °F 81% 29.92 in 5.0 mi Variable 3.5 mph - N/A   Haze
5:53 PM 71.1 °F 64.9 °F 81% 29.92 in 6.0 mi East 4.6 mph - N/A   Haze
6:53 PM 71.1 °F 64.9 °F 81% 29.92 in 5.0 mi NE 4.6 mph - N/A   Haze
7:25 PM 71.1 °F 64.9 °F 81% 29.93 in 4.0 mi NE 4.6 mph - N/A   Haze
7:53 PM 70.0 °F 64.9 °F 84% 29.92 in 4.0 mi Calm Calm - N/A   Haze
8:43 PM 69.1 °F 64.9 °F 87% 29.92 in 4.0 mi NE 4.6 mph - N/A   Overcast
8:53 PM 69.1 °F 64.9 °F 87% 29.92 in 4.0 mi NE 4.6 mph - N/A   Overcast
9:53 PM 69.1 °F 64.9 °F 87% 29.93 in 4.0 mi Variable 3.5 mph - N/A   Overcast
10:53 PM 68.0 °F 64.0 °F 87% 29.94 in 3.0 mi NE 3.5 mph - N/A   Overcast
11:29 PM 66.9 °F 64.0 °F 90% 29.94 in 2.5 mi NE 4.6 mph - 0.01 in Rain Light Rain
11:48 PM 66.2 °F 64.4 °F 94% 29.94 in 2.5 mi Calm Calm - 0.01 in   Overcast
11:53 PM 66.9 °F 64.0 °F 90% 29.94 in 2.5 mi Calm Calm - 0.01 in   Overcast